GW0132 Weather Reports


time (UTC)temp
F
wind
direction
speed
knots
gust
knots
rain 1hr
in
rain 24hr
in
rain mn
in
humidity
%
barometer
mb
20260906210905 68 32 0.9 0.9 0.00 0.00 0.00 75 1017.4
20260906210401 68 281 0.0 0.9 0.00 0.00 0.00 74 1017.4
20260906205855 68 279 0.9 0.9 0.00 0.00 0.00 76 1017.4
20260906205351 68 264 0.9 0.9 0.00 0.00 0.00 78 1017.5
20260906204847 68 259 0.9 0.9 0.00 0.00 0.00 77 1017.2
20260906204346 68 21 1.7 2.6 0.00 0.00 0.00 76 1017.3
20260906203845 69 193 1.7 1.7 0.00 0.00 0.00 70 1017.4
20260906203341 69 249 0.9 0.9 0.00 0.00 0.00 75 1017.4
20260906202838 69 101 1.7 1.7 0.00 0.00 0.00 74 1017.4
20260906202332 69 259 0.0 0.0 0.00 0.00 0.00 72 1017.5
20260906201831 69 88 1.7 2.6 0.00 0.00 0.00 71 1017.3
20260906201326 70 3 1.7 1.7 0.00 0.00 0.00 73 1017.3
20260906200822 69 267 0.9 0.9 0.00 0.00 0.00 72 1017.5
20260906200318 70 284 0.9 0.9 0.00 0.00 0.00 75 1017.5
20260906195812 69 284 1.7 1.7 0.00 0.00 0.00 72 1017.4
20260906195309 68 278 0.0 0.9 0.00 0.00 0.00 75 1017.3
20260906194804 70 251 0.9 0.9 0.00 0.00 0.00 74 1017.5
20260906194254 70 10 1.7 2.6 0.00 0.00 0.00 73 1017.4
20260906193748 68 278 0.9 0.9 0.00 0.00 0.00 78 1017.6
20260906193244 71 21 1.7 2.6 0.00 0.00 0.00 71 1017.5
20260906192740 71 335 1.7 1.7 0.00 0.00 0.00 75 1017.4
20260906192240 71 13 2.6 2.6 0.00 0.00 0.00 69 1017.2
20260906191739 71 302 1.7 1.7 0.00 0.00 0.00 72 1017.1
20260906191233 70 265 0.9 0.9 0.00 0.00 0.00 74 1017.3
20260906190728 72 31 1.7 2.6 0.00 0.00 0.00 69 1017.1
20260906190222 71 263 0.9 1.7 0.00 0.00 0.00 71 1017.0
20260906185721 68 123 0.9 0.9 0.00 0.00 0.00 75 1017.3
20260906185221 70 209 2.6 4.3 0.00 0.00 0.00 76 1017.2
20260906184715 70 245 0.9 0.9 0.00 0.00 0.00 74 1017.4
20260906184211 69 65 0.9 1.7 0.00 0.00 0.00 74 1017.3
20260906183707 70 25 0.9 1.7 0.00 0.00 0.00 76 1017.2
20260906183203 70 15 0.9 0.9 0.00 0.00 0.00 74 1017.1
20260906182703 71 22 1.7 1.7 0.00 0.00 0.00 73 1017.3
20260906182158 69 211 1.7 2.6 0.00 0.00 0.00 71 1017.3
20260906181654 70 23 1.7 1.7 0.00 0.00 0.00 71 1017.4
20260906181149 72 323 2.6 4.3 0.00 0.00 0.00 67 1017.2
20260906180644 71 70 1.7 2.6 0.00 0.00 0.00 68 1017.2
20260906180139 71 34 1.7 2.6 0.00 0.00 0.00 69 1017.1
20260906175637 72 256 0.9 0.9 0.00 0.00 0.00 74 1017.4
20260906175132 69 260 0.9 0.9 0.00 0.00 0.00 74 1017.3
20260906174630 71 351 2.6 5.2 0.00 0.00 0.00 69 1017.4
20260906174126 71 313 1.7 1.7 0.00 0.00 0.00 69 1017.3
20260906173621 68 269 0.9 0.9 0.00 0.00 0.00 77 1017.4
20260906173116 69 1 0.9 0.9 0.00 0.00 0.00 74 1017.3
20260906172610 69 33 1.7 2.6 0.00 0.00 0.00 74 1017.8
20260906172106 69 247 2.6 2.6 0.00 0.00 0.00 72 1017.6
20260906171605 69 253 2.6 2.6 0.00 0.00 0.00 77 1017.5
20260906171101 69 321 0.9 0.9 0.00 0.00 0.00 78 1017.5
20260906170556 70 10 1.7 2.6 0.00 0.00 0.00 75 1017.5
20260906170055 69 46 0.9 1.7 0.00 0.00 0.00 76 1017.3
20260906165552 70 276 2.6 2.6 0.00 0.00 0.00 75 1017.3
20260906165047 71 286 1.7 1.7 0.00 0.00 0.00 79 1017.4
20260906164546 71 117 0.9 0.9 0.00 0.00 0.00 72 1017.4
20260906164042 71 124 0.9 1.7 0.00 0.00 0.00 74 1017.5
20260906163537 69 358 2.6 2.6 0.00 0.00 0.00 76 1017.3
20260906163033 72 42 0.9 0.9 0.00 0.00 0.00 73 1017.1
20260906162530 71 247 2.6 4.3 0.00 0.00 0.00 72 1017.4
20260906162025 71 13 0.9 0.9 0.00 0.00 0.00 76 1017.3
20260906161520 71 82 1.7 1.7 0.00 0.00 0.00 77 1017.2
20260906161019 69 281 0.9 1.7 0.00 0.00 0.00 82 1017.2
20260906160518 71 154 0.9 0.9 0.00 0.00 0.00 74 1017.4
20260906160017 71 289 0.9 1.7 0.00 0.00 0.00 73 1017.3
20260906155514 70 279 0.9 0.9 0.00 0.00 0.00 76 1017.1
20260906155011 70 301 0.9 1.7 0.00 0.00 0.00 78 1017.1
20260906154506 70 282 0.9 0.9 0.00 0.00 0.00 79 1017.0
20260906154004 69 63 0.9 0.9 0.00 0.00 0.00 77 1017.2
20260906153503 71 262 1.7 1.7 0.00 0.00 0.00 76 1017.2
20260906152958 71 238 0.9 0.9 0.00 0.00 0.00 76 1017.0
20260906152453 70 272 0.9 1.7 0.00 0.00 0.00 76 1017.0
20260906151953 69 113 2.6 2.6 0.00 0.00 0.00 79 1017.1
20260906151448 70 21 1.7 1.7 0.00 0.00 0.00 82 1016.9
20260906150944 70 313 0.0 0.0 0.00 0.00 0.00 81 1017.0
20260906150439 70 14 0.9 1.7 0.00 0.00 0.00 78 1016.9
20260906145938 69 26 1.7 1.7 0.00 0.00 0.00 83 1017.0
20260906145438 70 267 0.9 0.9 0.00 0.00 0.00 79 1016.8
20260906144932 69 94 1.7 1.7 0.00 0.00 0.00 81 1017.0
20260906144427 70 265 0.0 0.9 0.00 0.00 0.00 83 1016.9
20260906143922 69 268 0.0 0.9 0.00 0.00 0.00 84 1017.1
20260906143418 69 297 0.9 1.7 0.00 0.00 0.00 84 1016.7
20260906142914 68 335 1.7 1.7 0.00 0.00 0.00 83 1016.8
20260906142413 68 118 1.7 1.7 0.00 0.00 0.00 85 1017.1
20260906141908 70 292 0.0 0.9 0.00 0.00 0.00 86 1016.9
20260906141408 68 52 1.7 2.6 0.00 0.00 0.00 87 1016.9
20260906140902 68 266 0.9 0.9 0.00 0.00 0.00 91 1016.8
20260906140356 67 337 1.7 2.6 0.00 0.00 0.00 89 1016.7
20260906135854 67 233 0.0 0.9 0.00 0.00 0.00 91 1016.9
20260906135349 66 342 2.6 2.6 0.00 0.00 0.00 92 1016.6
20260906134844 66 206 0.0 0.0 0.00 0.00 0.00 95 1016.6
20260906134339 65 298 0.9 0.9 0.00 0.00 0.00 95 1016.6
20260906133835 64 266 0.0 0.0 0.00 0.00 0.00 95 1016.5
20260906133330 64 262 0.9 0.9 0.00 0.00 0.00 96 1016.5
20260906132826 64 252 0.9 1.7 0.00 0.00 0.00 97 1016.4
20260906132321 64 274 0.9 1.7 0.00 0.00 0.00 99 1016.4
20260906131816 64 284 0.9 0.9 0.00 0.00 0.00 99 1016.5
20260906131312 64 272 0.9 0.9 0.00 0.00 0.00 99 1016.5
20260906130807 64 237 1.7 1.7 0.00 0.00 0.00 99 1016.4
20260906130307 63 284 0.0 0.9 0.00 0.00 0.00 99 1016.3
20260906125805 63 260 0.0 0.9 0.00 0.00 0.00 99 1016.3
20260906125306 63 285 0.0 0.0 0.00 0.00 0.00 99 1016.5
20260906124758 64 259 0.0 0.0 0.00 0.00 0.00 99 1016.4
20260906124254 64 325 0.0 1.7 0.00 0.00 0.00 99 1016.3
20260906123753 63 324 0.0 0.9 0.00 0.00 0.00 99 1016.3
20260906123248 63 314 0.0 0.9 0.00 0.00 0.00 99 1016.7
20260906122748 60 287 0.0 0.0 0.00 0.00 0.00 99 1016.2
20260906122243 59 258 0.0 0.0 0.00 0.00 0.00 99 1016.1
20260906121739 59 261 0.0 0.0 0.00 0.00 0.00 99 1016.1
20260906121236 58 261 0.0 0.0 0.00 0.00 0.00 99 1016.3
20260906120731 57 258 0.0 0.0 0.00 0.00 0.00 99 1016.1
20260906120228 57 264 0.0 0.0 0.00 0.00 0.00 99 1016.1
20260906115723 57 261 0.0 0.0 0.00 0.00 0.00 99 1015.9
20260906115218 57 259 0.0 0.0 0.00 0.00 0.00 99 1015.8
20260906114717 57 261 0.0 0.0 0.00 0.00 0.00 99 1015.7
20260906114212 57 263 0.0 0.0 0.00 0.00 0.00 99 1015.4
20260906113708 57 261 0.0 0.0 0.00 0.00 0.00 99 1015.8
20260906113207 57 260 0.0 0.0 0.00 0.00 0.00 99 1015.9
20260906112707 57 260 0.0 0.0 0.00 0.00 0.00 99 1015.6
20260906112204 57 262 0.0 0.0 0.00 0.00 0.00 99 1015.7
20260906111703 57 261 0.0 0.0 0.00 0.00 0.00 99 1015.6
20260906111157 57 262 0.0 0.0 0.00 0.00 0.00 99 1015.8
20260906110653 57 262 0.0 0.0 0.00 0.00 0.00 99 1015.7
20260906110148 57 262 0.0 0.0 0.00 0.00 0.00 99 1015.5
20260906105642 56 262 0.0 0.0 0.00 0.00 0.00 99 1015.5
20260906105138 56 262 0.0 0.0 0.00 0.00 0.00 99 1015.4
20260906104637 56 262 0.0 0.0 0.00 0.00 0.00 99 1015.3
20260906104131 56 261 0.0 0.0 0.00 0.00 0.00 99 1015.3
20260906103629 55 262 0.0 0.0 0.00 0.00 0.00 99 1015.4
20260906103125 55 261 0.0 0.0 0.00 0.00 0.00 99 1015.2
20260906102620 55 261 0.0 0.0 0.00 0.00 0.00 99 1015.1
20260906102114 56 261 0.0 0.0 0.00 0.00 0.00 99 1015.1
20260906101609 56 261 0.0 0.0 0.00 0.00 0.00 99 1015.0
20260906101109 56 265 0.0 0.0 0.00 0.00 0.00 99 1015.1
20260906100605 56 262 0.0 0.0 0.00 0.00 0.00 99 1015.0
20260906100105 56 262 0.0 0.0 0.00 0.00 0.00 99 1015.1
20260906095604 56 261 0.0 0.0 0.00 0.00 0.00 99 1014.9
20260906095100 56 263 0.0 0.0 0.00 0.00 0.00 99 1014.9
20260906094559 56 263 0.0 0.0 0.00 0.00 0.00 99 1014.9
20260906094055 56 263 0.0 0.0 0.00 0.00 0.00 99 1014.7
20260906093550 57 262 0.0 0.0 0.00 0.00 0.00 99 1014.7
20260906093045 56 263 0.0 0.0 0.00 0.00 0.00 99 1014.7
20260906092540 57 262 0.0 0.0 0.00 0.00 0.00 99 1014.7
20260906092035 57 260 0.0 0.0 0.00 0.00 0.00 99 1014.6
20260906091531 57 261 0.0 0.0 0.00 0.00 0.00 99 1014.6
20260906091027 57 261 0.0 0.0 0.00 0.00 0.00 99 1014.6
20260906090522 57 261 0.0 0.0 0.00 0.00 0.00 99 1014.4
20260906090017 57 263 0.0 0.0 0.00 0.00 0.00 99 1014.4
20260906085515 57 261 0.0 0.0 0.00 0.00 0.00 99 1014.2
20260906085015 58 261 0.0 0.0 0.00 0.00 0.00 99 1014.2
20260906084510 58 261 0.0 0.0 0.00 0.00 0.00 99 1014.1
20260906084009 58 261 0.0 0.0 0.00 0.00 0.00 99 1014.0
20260906083505 58 263 0.0 0.0 0.00 0.00 0.00 99 1014.1
20260906083004 58 262 0.0 0.0 0.00 0.00 0.00 99 1013.9
20260906082459 59 261 0.0 0.0 0.00 0.00 0.00 99 1014.1
20260906081955 59 262 0.0 0.0 0.00 0.00 0.00 99 1013.9
20260906081450 59 263 0.0 0.0 0.00 0.00 0.00 99 1014.0
20260906080946 59 262 0.0 0.0 0.00 0.00 0.00 99 1013.9
20260906080442 59 261 0.0 0.0 0.00 0.00 0.00 99 1014.1
20260906075937 59 261 0.0 0.0 0.00 0.00 0.00 99 1013.8
20260906075431 59 265 0.0 0.0 0.00 0.00 0.00 99 1014.0
20260906074927 59 262 0.0 0.0 0.00 0.00 0.00 99 1014.0
20260906074421 59 264 0.0 0.0 0.00 0.00 0.00 99 1013.8
20260906073920 59 262 0.0 0.0 0.00 0.00 0.00 99 1013.8
20260906073415 60 261 0.0 0.0 0.00 0.00 0.00 99 1013.9
20260906072911 60 263 0.0 0.0 0.00 0.00 0.00 99 1014.0
20260906072406 60 265 0.0 0.0 0.00 0.00 0.00 99 1013.8
20260906071902 60 262 0.0 0.0 0.00 0.00 0.00 99 1013.7
20260906071357 60 261 0.0 0.0 0.00 0.00 0.00 99 1014.0
20260906070853 60 261 0.0 0.0 0.00 0.00 0.00 99 1014.0
20260906070349 60 261 0.0 0.0 0.00 0.00 0.00 99 1013.9
20260906065844 60 259 0.0 0.0 0.00 0.00 0.00 99 1013.9
20260906065339 60 258 0.0 0.0 0.00 0.00 0.00 99 1013.9
20260906064834 60 261 0.0 0.0 0.00 0.00 0.00 99 1013.8
20260906064330 60 261 0.0 0.0 0.00 0.00 0.00 99 1014.0
20260906063825 60 264 0.0 0.0 0.00 0.00 0.00 99 1014.0
20260906063320 60 260 0.0 0.0 0.00 0.00 0.00 99 1014.0
20260906062815 60 262 0.0 0.0 0.00 0.00 0.00 99 1014.0
20260906062314 60 262 0.0 0.0 0.00 0.00 0.00 99 1014.1
20260906061810 60 266 0.0 0.0 0.00 0.00 0.00 99 1014.1
20260906061306 60 263 0.0 0.0 0.00 0.00 0.00 99 1014.1
20260906060801 60 263 0.0 0.0 0.00 0.00 0.00 99 1014.0
20260906060259 60 262 0.0 0.0 0.00 0.00 0.00 99 1014.0
20260906055754 60 263 0.0 0.0 0.00 0.00 0.00 99 1014.1
20260906055249 60 263 0.0 0.0 0.00 0.00 0.00 99 1013.9
20260906054745 60 263 0.0 0.0 0.00 0.00 0.00 99 1014.1
20260906054240 60 263 0.0 0.0 0.00 0.00 0.00 99 1014.1
20260906053737 60 263 0.0 0.0 0.00 0.00 0.00 99 1014.1
20260906053232 60 262 0.0 0.0 0.00 0.00 0.00 99 1014.2
20260906052727 60 262 0.0 0.0 0.00 0.00 0.00 99 1014.2
20260906052223 60 262 0.0 0.0 0.00 0.00 0.00 99 1014.3
20260906051720 60 261 0.0 0.0 0.00 0.00 0.00 99 1014.1
20260906051219 61 261 0.0 0.0 0.00 0.00 0.00 99 1014.3
20260906050715 61 261 0.0 0.0 0.00 0.00 0.00 99 1013.9
20260906050210 61 265 0.0 0.0 0.00 0.00 0.00 99 1014.0
20260906045708 61 267 0.0 0.0 0.00 0.00 0.00 99 1014.1
20260906045203 61 263 0.0 0.0 0.00 0.00 0.00 99 1014.0
20260906044659 61 263 0.0 0.0 0.00 0.00 0.00 99 1013.9
20260906044154 61 265 0.0 0.0 0.00 0.00 0.00 99 1013.8
20260906043650 61 262 0.0 0.0 0.00 0.00 0.00 99 1014.1
20260906043146 61 260 0.0 0.0 0.00 0.00 0.00 99 1013.8
20260906042645 61 259 0.0 0.0 0.00 0.00 0.00 99 1014.0
20260906042139 61 262 0.0 0.0 0.00 0.00 0.00 99 1013.7
20260906041635 61 262 0.0 0.0 0.00 0.00 0.00 99 1013.9
20260906041130 61 262 0.0 0.0 0.00 0.00 0.00 99 1013.8
20260906040626 61 261 0.0 0.0 0.00 0.00 0.00 99 1014.0
20260906040121 61 261 0.0 0.0 0.00 0.00 0.00 99 1013.8
20260906035616 61 263 0.0 0.0 0.00 0.00 0.00 99 1013.8
20260906035111 61 264 0.0 0.0 0.00 0.00 0.00 99 1013.7
20260906034606 61 262 0.0 0.0 0.00 0.00 0.00 99 1013.9
20260906034101 61 263 0.0 0.0 0.00 0.00 0.00 99 1013.6
20260906033556 61 266 0.0 0.0 0.00 0.00 0.00 99 1013.6
20260906033051 61 264 0.0 0.0 0.00 0.00 0.00 99 1013.7
20260906032548 61 261 0.0 0.0 0.00 0.00 0.00 99 1013.6
20260906032048 61 260 0.0 0.0 0.00 0.00 0.00 99 1013.7
20260906031543 61 258 0.0 0.0 0.00 0.00 0.00 99 1013.8
20260906031039 60 262 0.0 0.0 0.00 0.00 0.00 99 1013.8
20260906030538 60 262 0.0 0.0 0.00 0.00 0.00 99 1013.5
20260906030037 60 263 0.0 0.0 0.00 0.00 0.00 99 1013.7
20260906025532 60 262 0.0 0.0 0.00 0.00 0.00 99 1013.4
20260906025030 60 262 0.0 0.0 0.00 0.00 0.00 99 1013.6
20260906024525 60 261 0.0 0.0 0.00 0.00 0.00 99 1013.6
20260906024020 60 261 0.0 0.0 0.00 0.00 0.00 99 1013.6
20260906023516 60 261 0.0 0.0 0.00 0.00 0.00 99 1013.6
20260906023011 60 261 0.0 0.0 0.00 0.00 0.00 99 1013.3
20260906022506 60 261 0.0 0.0 0.00 0.00 0.00 99 1013.4
20260906022001 60 261 0.0 0.0 0.00 0.00 0.00 99 1013.4
20260906021456 60 261 0.0 0.0 0.00 0.00 0.00 99 1013.3
20260906020951 60 270 0.0 0.0 0.00 0.00 0.00 99 1013.3
20260906020444 61 261 0.0 0.0 0.00 0.00 0.00 99 1013.4
20260906015938 61 260 0.0 0.0 0.00 0.00 0.00 99 1013.3
20260906015433 61 263 0.0 0.0 0.00 0.00 0.00 99 1013.3
20260906014933 61 261 0.0 0.0 0.00 0.00 0.00 99 1013.2
20260906014432 61 260 0.0 0.0 0.00 0.00 0.00 99 1013.2
20260906013929 62 263 0.0 0.0 0.00 0.00 0.00 99 1013.3
20260906013424 62 262 0.0 0.0 0.00 0.00 0.00 99 1013.4
20260906012920 62 263 0.0 0.0 0.00 0.00 0.00 99 1013.4
20260906012420 62 262 0.0 0.0 0.00 0.00 0.00 98 1013.1
20260906011919 62 262 0.0 0.0 0.00 0.00 0.00 98 1013.2
20260906011414 62 266 0.0 0.0 0.00 0.00 0.00 98 1013.4
20260906010910 62 261 0.0 0.0 0.00 0.00 0.00 98 1013.3
20260906010405 62 265 0.0 0.0 0.00 0.00 0.00 98 1013.2
20260906005901 62 260 0.0 0.0 0.00 0.00 0.00 98 1013.2
20260906005400 62 267 0.0 0.0 0.00 0.00 0.00 98 1013.3
20260906004859 62 261 0.0 0.0 0.00 0.00 0.00 98 1013.2
20260906004353 62 265 0.0 0.0 0.00 0.00 0.00 97 1013.1
20260906003849 62 262 0.0 0.0 0.00 0.00 0.00 97 1013.0
20260906003344 62 261 0.0 0.0 0.00 0.00 0.00 97 1013.0
20260906002840 63 261 0.0 0.0 0.00 0.00 0.00 97 1013.0
20260906002339 63 261 0.0 0.0 0.00 0.00 0.00 97 1013.2
20260906001835 63 261 0.0 0.0 0.00 0.00 0.00 97 1012.9
20260906001330 63 261 0.0 0.0 0.00 0.00 0.00 96 1013.0
20260906000825 63 261 0.0 0.0 0.00 0.00 0.00 96 1012.9
20260906000320 63 262 0.0 0.0 0.00 0.00 0.00 96 1013.0
20260905235819 63 261 0.0 0.0 0.00 0.00 0.00 95 1013.2
20260905235314 64 261 0.0 0.0 0.00 0.00 0.00 95 1013.2
20260905234810 64 261 0.0 0.0 0.00 0.00 0.00 94 1013.3
20260905234305 64 262 0.0 0.0 0.00 0.00 0.00 94 1013.2
20260905233759 65 260 0.0 0.0 0.00 0.00 0.00 93 1013.0
20260905233254 65 258 0.0 0.0 0.00 0.00 0.00 93 1013.2
20260905232753 66 259 0.0 0.0 0.00 0.00 0.00 92 1013.0
20260905232249 66 261 0.0 0.0 0.00 0.00 0.00 91 1013.1
20260905231745 66 260 0.0 0.0 0.00 0.00 0.00 89 1013.0
20260905231240 67 254 0.0 0.0 0.00 0.00 0.00 89 1013.3
20260905230737 67 257 0.0 0.0 0.00 0.00 0.00 88 1013.3
20260905230234 68 276 0.0 0.0 0.00 0.00 0.00 87 1013.0
20260905225734 68 261 0.0 0.0 0.00 0.00 0.00 86 1013.0
20260905225229 68 261 0.0 0.0 0.00 0.00 0.00 85 1013.0
20260905224728 68 318 0.9 0.9 0.00 0.00 0.00 85 1013.4
20260905224224 69 258 0.9 0.9 0.00 0.00 0.00 84 1013.1
20260905223720 69 278 0.0 0.0 0.00 0.00 0.00 83 1013.2
20260905223217 69 263 0.0 0.0 0.00 0.00 0.00 82 1013.2
20260905222712 70 263 0.9 0.9 0.00 0.00 0.00 82 1013.1
20260905222211 70 258 0.0 0.9 0.00 0.00 0.00 81 1013.0
20260905221707 70 319 1.7 1.7 0.00 0.00 0.00 79 1013.1
20260905221204 71 334 0.9 1.7 0.00 0.00 0.00 81 1013.0
20260905220659 71 313 0.0 1.7 0.00 0.00 0.00 79 1012.8
20260905220155 71 312 0.9 0.9 0.00 0.00 0.00 77 1012.7
20260905215654 71 322 0.9 0.9 0.00 0.00 0.00 79 1012.6
20260905215150 71 284 0.9 0.9 0.00 0.00 0.00 79 1012.7
20260905214646 72 314 0.9 0.9 0.00 0.00 0.00 77 1012.7
20260905214141 72 267 0.9 0.9 0.00 0.00 0.00 77 1012.5
20260905213636 72 283 0.9 0.9 0.00 0.00 0.00 75 1012.6
20260905213132 72 272 0.9 0.9 0.00 0.00 0.00 74 1012.5
20260905212627 72 74 0.9 0.9 0.00 0.00 0.00 73 1012.6
20260905212126 73 260 0.9 0.9 0.00 0.00 0.00 73 1012.6
20260905211621 73 330 0.9 1.7 0.00 0.00 0.00 71 1012.4